Dubrovnik, Croatia

11:25 AM CET on February 24, 2018 (GMT +0100)
Cilipi

Weather History for LDDU - December, 2017

Change the Weather History Date:

Friday, December 15, 2017

  Actual Average (LYTV) Record (LYTV)
Temperature  
Mean Temperature 52 °F -  
Max Temperature 56 °F 53 °F 64 °F (2000)
Min Temperature 49 °F 36 °F 30 °F (2006)
Degree Days  
Heating Degree Days 12    
Growing Degree Days 2 (Base 50)    
Moisture  
Dew Point 53 °F    
Average Humidity 92    
Maximum Humidity 100    
Minimum Humidity 65    
Precipitation  
Precipitation 0.71 in - - ()
Sea Level Pressure  
Sea Level Pressure 29.78 in    
Wind  
Wind Speed 14 mph ()    
Max Wind Speed 22 mph    
Max Gust Speed 33 mph    
Visibility 5.9 miles    
Events Rain    
Averages and records for this station are not official NWS values.
T = Trace of Precipitation, MM = Missing Value Source: Averaged Metar Reports

Daily Weather History Graph

Daily Weather History Graph

Search for Another Location

Airport or City:

Trip Planner

Search our weather history database for the weather conditions in past years. The results will help you decide how hot, cold, wet, or windy it might be!

Date:

Astronomy

Dec. 15, 2017 Rise Set
Actual Time 7:09 AM CET 4:14 PM CET
Civil Twilight 6:37 AM CET 4:46 PM CET
Nautical Twilight 6:02 AM CET 5:22 PM CET
Astronomical Twilight 5:27 AM CET 5:56 PM CET
Moon 4:10 AM CET (12/15) 2:49 PM CET (12/15)
Length of Visible Light 10h 08m
Length of Day
9h 04m
Waning Crescent, 7% of the Moon is Illuminated
Dec 15
Waning Crescent
Dec 18
New
Dec 26
First Quarter
Jan 2
Full
Jan 8
Last Quarter

Hourly Weather History & Observations

Time (CET) Temp. Dew Point Humidity Pressure Visibility Wind Dir Wind Speed Gust Speed Precip Events Conditions
12:00 AM 51.8 °F 50.0 °F 94% 29.92 in 6.2 mi ESE 11.5 mph - N/A   Mostly Cloudy
12:30 AM 53.6 °F 50.0 °F 88% 29.92 in 6.2 mi ESE 11.5 mph - N/A   Mostly Cloudy
1:00 AM 53 °F 50 °F 85% 29.92 in 12 mi East 15.7 mph - -   Mostly Cloudy
1:00 AM 53.6 °F 50.0 °F 88% 29.92 in 6.2 mi East 15.0 mph - N/A   Mostly Cloudy
1:30 AM 55.4 °F 51.8 °F 88% 29.89 in 6.2 mi SE 11.5 mph - N/A   Mostly Cloudy
2:00 AM 57 °F 55 °F 91% 29.60 in 6 mi SSE 20.1 mph - -  
2:00 AM 55.4 °F 51.8 °F 88% 29.89 in 6.2 mi SSE 13.8 mph - N/A   Mostly Cloudy
2:30 AM 55.4 °F 51.8 °F 88% 29.89 in 6.2 mi SE 13.8 mph - N/A   Mostly Cloudy
3:00 AM 55.4 °F 53.6 °F 94% 29.89 in 6.2 mi SSE 12.7 mph - N/A   Mostly Cloudy
3:30 AM 55.4 °F 51.8 °F 88% 29.89 in 6.2 mi SSE 15.0 mph - N/A   Mostly Cloudy
4:00 AM 56 °F 52 °F 82% 29.89 in 12 mi SSE 15.7 mph - -   Mostly Cloudy
4:00 AM 55.4 °F 51.8 °F 88% 29.89 in 6.2 mi SSE 16.1 mph - N/A   Mostly Cloudy
4:30 AM 55.4 °F 50.0 °F 82% 29.89 in 6.2 mi SSE 15.0 mph - N/A   Mostly Cloudy
5:00 AM 55.4 °F 50.0 °F 82% 29.86 in 6.2 mi SSE 15.0 mph - N/A   Mostly Cloudy
5:30 AM 57.2 °F 50.0 °F 77% 29.86 in 6.2 mi SSE 16.1 mph - N/A   Mostly Cloudy
6:00 AM 57.2 °F 50.0 °F 77% 29.86 in 6.2 mi SSE 16.1 mph - N/A   Mostly Cloudy
6:30 AM 57.2 °F 48.2 °F 72% 29.86 in 6.2 mi SSE 16.1 mph - N/A   Mostly Cloudy
7:00 AM 57 °F 49 °F 65% 29.87 in 10 mi SSE 13.4 mph - - Rain Light Rain
7:00 AM 57.2 °F 48.2 °F 72% 29.86 in 6.2 mi SSE 13.8 mph 26.5 mph N/A Rain Light Rain
7:30 AM 55.4 °F 50.0 °F 82% 29.86 in 6.2 mi ESE 13.8 mph - N/A Rain Light Rain
8:00 AM 53.6 °F 53.6 °F 100% 29.86 in 5.0 mi ESE 16.1 mph - N/A Rain Light Rain
8:30 AM 53.6 °F 53.6 °F 100% 29.86 in 3.7 mi SE 16.1 mph - N/A Rain Rain
9:00 AM 55.4 °F 53.6 °F 94% 29.86 in 3.1 mi SE 15.0 mph - N/A Rain Light Rain
9:30 AM 55.4 °F 55.4 °F 100% 29.86 in 6.2 mi SE 15.0 mph - N/A Rain Light Rain
10:00 AM 56 °F 55 °F 96% 29.86 in 6 mi SSE 15.7 mph - - Rain Light Rain
10:00 AM 55.4 °F 55.4 °F 100% 29.86 in 3.7 mi SSE 16.1 mph - N/A Rain Light Rain
10:30 AM 55.4 °F 55.4 °F 100% 29.83 in 5.6 mi SSE 17.3 mph - N/A Rain Light Rain
11:00 AM 55.4 °F 53.6 °F 94% 29.83 in 6.2 mi SSE 15.0 mph - N/A Rain Light Rain
11:30 AM 55.4 °F 53.6 °F 94% 29.83 in 3.7 mi SSE 15.0 mph - N/A Rain Rain
12:00 PM 55.4 °F 55.4 °F 100% 29.80 in 3.7 mi SE 16.1 mph - N/A Rain Rain
12:30 PM 55.4 °F 53.6 °F 94% 29.77 in 6.2 mi SE 17.3 mph - N/A Rain Light Rain
1:00 PM 55 °F 54 °F 98% 29.78 in 6 mi SE 15.7 mph - - Rain Light Rain
1:00 PM 55.4 °F 55.4 °F 100% 29.77 in 6.2 mi SE 15.0 mph - N/A Rain Light Rain
1:30 PM 55.4 °F 55.4 °F 100% 29.77 in 4.3 mi SE 18.4 mph - N/A Rain Light Rain
2:00 PM 55.4 °F 53.6 °F 94% 29.74 in 6.2 mi SE 17.3 mph - N/A Rain Light Rain
2:30 PM 55.4 °F 53.6 °F 94% 29.74 in 6.2 mi SSE 17.3 mph - N/A Rain Light Rain
3:30 PM 55.4 °F 55.4 °F 100% 29.71 in 5.0 mi SE 17.3 mph - N/A Rain Light Rain
4:00 PM 56 °F 55 °F 95% 29.72 in 6 mi SE 17.9 mph - - Rain Light Rain
4:00 PM 55.4 °F 55.4 °F 100% 29.71 in 6.2 mi SE 17.3 mph - N/A Rain Light Rain
4:30 PM 55.4 °F 55.4 °F 100% 29.71 in 3.1 mi SE 19.6 mph - N/A Rain Rain
5:00 PM 55.4 °F 53.6 °F 94% 29.71 in 4.3 mi SE 17.3 mph - N/A Rain Rain
5:30 PM 55.4 °F 53.6 °F 94% 29.71 in - SE 21.9 mph 33.4 mph N/A Rain Light Rain
6:00 PM 55.4 °F 53.6 °F 94% 29.68 in 4.3 mi SE 20.7 mph - N/A Rain Light Rain
6:30 PM 55.4 °F 53.6 °F 94% 29.68 in 5.6 mi SE 20.7 mph - N/A Rain Light Rain
7:00 PM 56 °F 54 °F 90% 29.69 in 7 mi SE 20.1 mph - - Rain Light Rain
7:00 PM 55.4 °F 53.6 °F 94% 29.68 in 6.2 mi SE 19.6 mph - N/A Rain Light Rain
7:30 PM 55.4 °F 51.8 °F 88% 29.65 in 6.2 mi SE 20.7 mph - N/A Rain Light Rain
8:00 PM 55.4 °F 51.8 °F 88% 29.65 in 6.2 mi SE 21.9 mph 33.4 mph N/A Rain Light Rain
8:30 PM 55.4 °F 55.4 °F 100% 29.68 in 5.6 mi SSE 19.6 mph - N/A Rain Light Rain
9:00 PM 55.4 °F 55.4 °F 100% 29.65 in 5.0 mi SE 19.6 mph - N/A Rain Light Rain
9:30 PM 55.4 °F 55.4 °F 100% 29.65 in 5.0 mi SE 19.6 mph 32.2 mph N/A Rain Light Rain
10:00 PM 56 °F 56 °F 98% 29.67 in 5 mi SE 17.9 mph - - Rain Rain
10:00 PM 55.4 °F 55.4 °F 100% 29.65 in 5.0 mi SE 17.3 mph - N/A Rain Rain
10:30 PM 55.4 °F 55.4 °F 100% 29.65 in 5.0 mi SE 19.6 mph - N/A Rain Light Rain
11:00 PM 55.4 °F 55.4 °F 100% 29.62 in 5.0 mi SE 18.4 mph - N/A Rain Light Rain
11:30 PM 55.4 °F 55.4 °F 100% 29.62 in 5.0 mi SE 18.4 mph - N/A Rain Light Rain